Weather Roundup
Issued by NWS

Home | Current Version | Previous Version | Graphics & Text | Print | Product List | Glossary Off
Versions: 1 2 3 4 5 6 7 8 9 10 11 12 13 14 15 16 17 18 19 20 21 22 23 24 25 26 27 28 29 30 31 32 33 34 35 36 37 38 39 40 41 42 43 44 45 46 47 48 49 50

000
NZUS93 KARX 210210
HRRWXR

CURRENT HOURLY OBSERVATIONS ACROSS
MUCH OF THE UPPER MISSISSIPPI VALLEY
NATIONAL WEATHER SERVICE LA CROSSE WI
900 PM CDT MON OCT 20 2014


...SOUTHEAST MINNESOTA...


CITY           SKY/WX    TMP DP  RH WIND       PRES   REMARKS
ROCHESTER      CLEAR     48  40  73 NE7       30.04R
ROCHESTER/MAYO FAIR      53  38  58 N3        30.04R
WINONA         CLEAR     50  37  62 CALM      30.05R
AUSTIN         CLEAR     48  39  71 CALM      30.03R
ALBERT LEA     CLEAR     50  39  66 N5        30.04R
DODGE CENTER   CLEAR     50  39  66 N3        30.04R
PRESTON        CLEAR     48  40  74 N6        30.04R
OWATONNA       CLEAR     50  39  66 NE7       30.04S
FARIBAULT      CLEAR     48  39  71 CALM      30.05R
$$

...ELSEWHERE IN MINNESOTA...


CITY           SKY/WX    TMP DP  RH WIND       PRES   REMARKS
MINNEAPOLIS    CLEAR     51  40  65 NE7       30.06R
INTNL FALLS    CLOUDY    44  36  73 E6        30.10S
DULUTH         CLOUDY    46  36  68 NE5       30.08S
RED WING       CLEAR     52  39  62 E5        30.04R
REDWOOD FALLS  CLEAR     57  39  51 N3        30.04R
MANKATO        CLEAR     54  36  50 NE3       30.04R
WORTHINGTON    CLEAR     45  34  65 NW3       30.06R
FAIRMONT       CLEAR     50  36  57 N6        30.04R
$$

...SOUTHWEST WISCONSIN...


CITY           SKY/WX    TMP DP  RH WIND       PRES   REMARKS
LA CROSSE      CLEAR     51  41  68 N5        30.04R
PRAIRIE DU CHI CLEAR     54  39  57 N5        30.02R
BOSCOBEL       CLEAR     47  40  76 NE3       30.03R
LONE ROCK      CLOUDY    56  39  53 NE6       30.03R
PLATTEVILLE    PTCLDY    48  40  75 NE6       30.03R
FORT MC COY    CLOUDY    51  38  61 CALM      30.05R
CAMP DOUGLAS   MOCLDY    52  41  66 NW3       30.04R
VIROQUA        FAIR      46  38  74 NE3       30.04R
WIS DELLS      CLOUDY    51  39  62 N3        30.03R
$$

...ELSEWHERE IN WISCONSIN...


CITY           SKY/WX    TMP DP  RH WIND       PRES   REMARKS
MILWAUKEE      MOCLDY    51  42  71 N8        30.00R
MADISON        CLOUDY    51  42  71 N3        30.02R
GREEN BAY      CLOUDY    48  42  80 N12       30.01R
EAU CLAIRE     PTCLDY    48  37  65 N7        30.05R
BLACK RVR FLS  CLOUDY    48  40  74 CALM      30.04R
MEDFORD        CLOUDY    46  39  78 N5        30.05R
WAUSAU         CLOUDY    47  40  76 CALM      30.03R
WIS RAPIDS     CLOUDY    50  40  68 N6        30.05R
MARSHFIELD     CLOUDY    50  40  68 N3        30.04R
RICE LAKE      CLOUDY    49  40  70 N3        30.08R
$$

...NORTHEAST IOWA...


CITY           SKY/WX    TMP DP  RH WIND       PRES   REMARKS
DECORAH        PTCLDY    54  41  62 NE5       30.02R
MASON CITY     CLEAR     48  40  73 N5        30.04R
CHARLES CITY   CLEAR     52  41  66 N6        30.03R
OELWEIN        CLEAR     50  41  71 NE5       30.02R
$$

...ELSEWHERE IN IOWA...


CITY           SKY/WX    TMP DP  RH WIND       PRES   REMARKS
DES MOINES     CLEAR     57  40  52 W3        30.03S
IOWA CITY      CLEAR     52  43  71 NW6       30.01R
FORT DODGE     CLEAR     46  37  71 CALM      30.04R
$$

...NORTHERN ILLINOIS...


CITY           SKY/WX    TMP DP  RH WIND       PRES   REMARKS
CHICAGO-OHARE  MOCLDY    54  41  61 N12       29.98R
CHICAGO-MIDWAY CLOUDY    56  45  66 N7        29.98R
MOLINE         CLEAR     47  42  83 SW3       29.99R
ROCKFORD       MOCLDY    51  40  65 N6        30.03R
PEORIA         CLEAR     53  45  74 CALM      29.98R
$$

NOTE: "FAIR" INDICATES FEW OR NO CLOUDS BELOW 12,000 FEET WITH NO
SIGNIFICANT WEATHER AND/OR OBSTRUCTIONS TO VISIBILITY. WIND
SPEEDS ARE IN MILES-PER-HOUR.



USA.gov is the U.S. government's official web portal to all federal, state and local government web resources and services.